| time (UTC) | temp F | wind direction | speed MPH | gust MPH | rain 1hr in | rain 24hr in | rain mn in | humidity % | barometer mb |
| 20260506001759 | 61 | 118 | 2.0 | 4.0 | 0.00 | 0.03 | 0.03 | 51 | 1009.8 |
| 20260506001257 | 61 | 120 | 2.0 | 5.0 | 0.00 | 0.03 | 0.03 | 51 | 1009.6 |
| 20260506000755 | 61 | 166 | 3.0 | 8.0 | 0.00 | 0.03 | 0.03 | 51 | 1009.5 |
| 20260506000255 | 62 | 148 | 3.0 | 8.0 | 0.00 | 0.03 | 0.03 | 49 | 1009.6 |
| 20260506000021 | 62 | 167 | 3.0 | 6.0 | 0.00 | 0.03 | 0.03 | 50 | 1009.6 |
| 20260505235252 | 63 | 157 | 2.0 | 6.0 | 0.00 | 0.03 | 0.03 | 48 | 1009.7 |
| 20260505234746 | 63 | 134 | 3.0 | 7.0 | 0.00 | 0.03 | 0.03 | 48 | 1009.7 |
| 20260505234240 | 63 | 85 | 3.0 | 8.0 | 0.00 | 0.03 | 0.03 | 50 | 1009.6 |
| 20260505233734 | 63 | 74 | 3.0 | 8.0 | 0.00 | 0.03 | 0.03 | 51 | 1009.7 |
| 20260505233228 | 63 | 88 | 4.0 | 8.0 | 0.00 | 0.03 | 0.03 | 50 | 1009.7 |
| 20260505232722 | 63 | 106 | 5.0 | 9.0 | 0.00 | 0.03 | 0.03 | 51 | 1009.7 |
| 20260505232216 | 63 | 138 | 5.0 | 9.0 | 0.00 | 0.03 | 0.03 | 51 | 1009.6 |
| 20260505231711 | 62 | 90 | 3.0 | 7.0 | 0.00 | 0.03 | 0.03 | 54 | 1009.8 |
| 20260505231204 | 62 | 121 | 4.0 | 9.0 | 0.00 | 0.03 | 0.03 | 54 | 1010.2 |
| 20260505230659 | 62 | 141 | 4.0 | 9.0 | 0.00 | 0.03 | 0.03 | 53 | 1010.2 |
| 20260505230152 | 62 | 99 | 3.0 | 9.0 | 0.00 | 0.03 | 0.03 | 56 | 1010.2 |
| 20260505225647 | 62 | 128 | 3.0 | 9.0 | 0.00 | 0.03 | 0.03 | 58 | 1010.2 |
| 20260505225140 | 61 | 85 | 2.0 | 7.0 | 0.00 | 0.03 | 0.03 | 59 | 1010.1 |
| 20260505225122 | 60 | 96 | 2.0 | 5.0 | 0.02 | 0.03 | 0.03 | 57 | 1010.2 |
| 20260505224128 | 60 | 173 | 2.0 | 4.0 | 0.02 | 0.03 | 0.03 | 59 | 1010.3 |
| 20260505223623 | 59 | 88 | 2.0 | 4.0 | 0.02 | 0.03 | 0.03 | 60 | 1010.3 |
| 20260505223116 | 59 | 114 | 2.0 | 7.0 | 0.02 | 0.03 | 0.03 | 68 | 1010.4 |
| 20260505222611 | 58 | 140 | 3.0 | 7.0 | 0.02 | 0.03 | 0.03 | 66 | 1010.7 |
| 20260505222325 | 57 | 214 | 3.0 | 7.0 | 0.02 | 0.03 | 0.03 | 75 | 1010.9 |
| 20260505221558 | 57 | 173 | 3.0 | 6.0 | 0.02 | 0.03 | 0.03 | 72 | 1011.0 |
| 20260505221052 | 56 | 205 | 4.0 | 9.0 | 0.02 | 0.03 | 0.03 | 71 | 1010.9 |
| 20260505220546 | 57 | 215 | 5.0 | 17.0 | 0.02 | 0.03 | 0.03 | 72 | 1010.9 |
| 20260505220042 | 57 | 213 | 6.0 | 17.0 | 0.02 | 0.03 | 0.03 | 70 | 1011.2 |
| 20260505215535 | 58 | 279 | 4.0 | 15.0 | 0.02 | 0.03 | 0.03 | 65 | 1011.6 |
| 20260505215029 | 60 | 210 | 3.0 | 14.0 | 0.02 | 0.03 | 0.03 | 62 | 1011.6 |
| 20260505214523 | 62 | 314 | 3.0 | 9.0 | 0.00 | 0.01 | 0.01 | 58 | 1011.5 |
| 20260505214017 | 62 | 280 | 2.0 | 7.0 | 0.00 | 0.01 | 0.01 | 47 | 1011.2 |
| 20260505213735 | 62 | 351 | 2.0 | 5.0 | 0.00 | 0.01 | 0.01 | 47 | 1011.2 |
| 20260505213005 | 62 | 240 | 2.0 | 5.0 | 0.00 | 0.01 | 0.01 | 47 | 1011.1 |
| 20260505212459 | 62 | 198 | 2.0 | 5.0 | 0.00 | 0.01 | 0.01 | 47 | 1011.0 |
| 20260505211953 | 62 | 81 | 2.0 | 5.0 | 0.00 | 0.01 | 0.01 | 47 | 1011.0 |
| 20260505211447 | 62 | 271 | 2.0 | 7.0 | 0.00 | 0.01 | 0.01 | 48 | 1011.1 |
| 20260505210941 | 62 | 294 | 2.0 | 8.0 | 0.00 | 0.01 | 0.01 | 48 | 1011.4 |
| 20260505210435 | 62 | 67 | 2.0 | 8.0 | 0.00 | 0.01 | 0.01 | 47 | 1011.2 |
| 20260505205929 | 63 | 252 | 2.0 | 5.0 | 0.00 | 0.01 | 0.01 | 47 | 1011.4 |
| 20260505205423 | 62 | 221 | 2.0 | 5.0 | 0.00 | 0.01 | 0.01 | 48 | 1011.2 |
| 20260505204917 | 62 | 103 | 1.0 | 3.0 | 0.00 | 0.01 | 0.01 | 50 | 1011.2 |
| 20260505204411 | 61 | 34 | 2.0 | 4.0 | 0.00 | 0.01 | 0.01 | 49 | 1011.1 |
| 20260505203905 | 61 | 58 | 2.0 | 6.0 | 0.00 | 0.01 | 0.01 | 49 | 1011.5 |
| 20260505203359 | 62 | 68 | 2.0 | 10.0 | 0.00 | 0.01 | 0.01 | 50 | 1011.5 |
| 20260505202853 | 64 | 288 | 4.0 | 10.0 | 0.00 | 0.01 | 0.01 | 47 | 1011.7 |
| 20260505202353 | 65 | 302 | 3.0 | 10.0 | 0.00 | 0.01 | 0.01 | 48 | 1011.6 |
| 20260505201853 | 64 | 20 | 2.0 | 9.0 | 0.00 | 0.01 | 0.01 | 47 | 1011.6 |
| 20260505201353 | 64 | 355 | 2.0 | 6.0 | 0.00 | 0.01 | 0.01 | 49 | 1011.5 |
| 20260505200851 | 63 | 43 | 2.0 | 7.0 | 0.00 | 0.01 | 0.01 | 48 | 1011.6 |
| 20260505200351 | 62 | 283 | 2.0 | 7.0 | 0.00 | 0.01 | 0.01 | 53 | 1011.6 |
| 20260505195851 | 61 | 300 | 3.0 | 7.0 | 0.00 | 0.01 | 0.01 | 53 | 1011.6 |
| 20260505195349 | 61 | 290 | 3.0 | 8.0 | 0.00 | 0.01 | 0.01 | 52 | 1011.7 |
| 20260505194847 | 61 | 217 | 4.0 | 9.0 | 0.01 | 0.01 | 0.01 | 54 | 1012.0 |
| 20260505194345 | 61 | 221 | 4.0 | 9.0 | 0.01 | 0.01 | 0.01 | 56 | 1011.8 |
| 20260505193845 | 60 | 207 | 4.0 | 10.0 | 0.01 | 0.01 | 0.01 | 58 | 1012.1 |
| 20260505193345 | 60 | 236 | 5.0 | 10.0 | 0.01 | 0.01 | 0.01 | 56 | 1012.1 |
| 20260505192845 | 60 | 165 | 4.0 | 8.0 | 0.01 | 0.01 | 0.01 | 56 | 1012.0 |
| 20260505192345 | 60 | 244 | 4.0 | 10.0 | 0.01 | 0.01 | 0.01 | 65 | 1012.2 |
| 20260505191844 | 59 | 171 | 4.0 | 10.0 | 0.01 | 0.01 | 0.01 | 60 | 1012.1 |
| 20260505191613 | 59 | 166 | 4.0 | 8.0 | 0.01 | 0.01 | 0.01 | 65 | 1012.2 |
| 20260505190845 | 58 | 198 | 4.0 | 10.0 | 0.01 | 0.01 | 0.01 | 65 | 1012.2 |
| 20260505190345 | 58 | 150 | 4.0 | 10.0 | 0.01 | 0.01 | 0.01 | 70 | 1012.3 |
| 20260505185844 | 57 | 155 | 4.0 | 8.0 | 0.01 | 0.01 | 0.01 | 72 | 1012.2 |
| 20260505185339 | 56 | 200 | 3.0 | 11.0 | 0.01 | 0.01 | 0.01 | 74 | 1012.2 |
| 20260505185053 | 56 | 189 | 4.0 | 11.0 | 0.00 | 0.00 | 0.00 | 76 | 1012.3 |
| 20260505184327 | 56 | 202 | 5.0 | 11.0 | 0.00 | 0.00 | 0.00 | 71 | 1012.3 |
| 20260505183821 | 58 | 235 | 6.0 | 13.0 | 0.00 | 0.00 | 0.00 | 67 | 1012.3 |
| 20260505183542 | 59 | 189 | 6.0 | 13.0 | 0.00 | 0.00 | 0.00 | 60 | 1012.3 |
| 20260505182809 | 60 | 218 | 7.0 | 13.0 | 0.00 | 0.00 | 0.00 | 52 | 1012.2 |
| 20260505182309 | 61 | 218 | 6.0 | 12.0 | 0.00 | 0.00 | 0.00 | 50 | 1012.1 |
| 20260505181808 | 62 | 228 | 5.0 | 11.0 | 0.00 | 0.00 | 0.00 | 52 | 1012.2 |
| 20260505181530 | 62 | 237 | 4.0 | 11.0 | 0.00 | 0.00 | 0.00 | 60 | 1012.1 |
| 20260505181029 | 62 | 235 | 3.0 | 11.0 | 0.00 | 0.00 | 0.00 | 53 | 1012.0 |
| 20260505180307 | 61 | 302 | 2.0 | 5.0 | 0.00 | 0.00 | 0.00 | 45 | 1012.0 |
| 20260505175806 | 62 | 207 | 2.0 | 5.0 | 0.00 | 0.00 | 0.00 | 43 | 1012.1 |
| 20260505175305 | 62 | 246 | 3.0 | 10.0 | 0.00 | 0.00 | 0.00 | 44 | 1012.0 |
| 20260505174805 | 63 | 223 | 4.0 | 10.0 | 0.00 | 0.00 | 0.00 | 44 | 1012.0 |
| 20260505174304 | 63 | 232 | 3.0 | 9.0 | 0.00 | 0.00 | 0.00 | 43 | 1011.8 |
| 20260505173805 | 63 | 196 | 3.0 | 9.0 | 0.00 | 0.00 | 0.00 | 43 | 1012.0 |
| 20260505173305 | 63 | 265 | 2.0 | 7.0 | 0.00 | 0.00 | 0.00 | 44 | 1011.8 |
| 20260505172804 | 62 | 285 | 2.0 | 5.0 | 0.00 | 0.00 | 0.00 | 42 | 1012.0 |
| 20260505172305 | 60 | 22 | 2.0 | 5.0 | 0.00 | 0.00 | 0.00 | 43 | 1011.8 |
| 20260505171801 | 60 | 47 | 1.0 | 4.0 | 0.00 | 0.00 | 0.00 | 44 | 1012.0 |
| 20260505171300 | 60 | 309 | 2.0 | 6.0 | 0.00 | 0.00 | 0.00 | 45 | 1012.1 |
| 20260505170756 | 60 | 321 | 2.0 | 8.0 | 0.00 | 0.00 | 0.00 | 45 | 1012.2 |
| 20260505170520 | 60 | 65 | 2.0 | 8.0 | 0.00 | 0.00 | 0.00 | 45 | 1012.7 |
| 20260505165756 | 60 | 53 | 2.0 | 4.0 | 0.00 | 0.00 | 0.00 | 46 | 1012.5 |
| 20260505165257 | 60 | 115 | 1.0 | 4.0 | 0.00 | 0.00 | 0.00 | 47 | 1012.4 |
| 20260505164757 | 58 | 164 | 1.0 | 4.0 | 0.00 | 0.00 | 0.00 | 48 | 1012.4 |
| 20260505164257 | 58 | 94 | 2.0 | 7.0 | 0.00 | 0.00 | 0.00 | 50 | 1012.2 |
| 20260505163756 | 57 | 344 | 2.0 | 7.0 | 0.00 | 0.00 | 0.00 | 49 | 1012.3 |
| 20260505163257 | 57 | 335 | 2.0 | 6.0 | 0.00 | 0.00 | 0.00 | 50 | 1012.5 |
| 20260505163008 | 56 | 331 | 2.0 | 7.0 | 0.00 | 0.00 | 0.00 | 53 | 1012.5 |
| 20260505162841 | 56 | 339 | 3.0 | 6.0 | 0.00 | 0.00 | 0.00 | 52 | 1012.4 |
| 20260505161757 | 55 | 5 | 2.0 | 7.0 | 0.00 | 0.00 | 0.00 | 53 | 1012.4 |
| 20260505161517 | 55 | 351 | 3.0 | 9.0 | 0.00 | 0.00 | 0.00 | 55 | 1012.8 |
| 20260505160757 | 55 | 355 | 3.0 | 9.0 | 0.00 | 0.00 | 0.00 | 56 | 1012.8 |
| 20260505160518 | 55 | 38 | 4.0 | 9.0 | 0.00 | 0.00 | 0.00 | 57 | 1012.8 |
| 20260505152756 | 55 | 0 | 4.0 | 10.0 | 0.00 | 0.00 | 0.00 | 59 | 1013.2 |
| 20260505152257 | 55 | 341 | 5.0 | 11.0 | 0.00 | 0.00 | 0.00 | 60 | 1013.2 |
| 20260505151756 | 56 | 309 | 5.0 | 11.0 | 0.00 | 0.00 | 0.00 | 59 | 1013.2 |
| 20260505151256 | 55 | 319 | 4.0 | 10.0 | 0.00 | 0.00 | 0.00 | 62 | 1013.2 |
| 20260505151020 | 55 | 346 | 3.0 | 8.0 | 0.00 | 0.00 | 0.00 | 63 | 1013.1 |
| 20260505150744 | 55 | 11 | 3.0 | 9.0 | 0.00 | 0.00 | 0.00 | 62 | 1013.1 |
| 20260505140213 | 56 | 69 | 6.0 | 17.0 | 0.00 | 0.00 | 0.00 | 52 | 1013.4 |
| 20260505124544 | 58 | 294 | 1.0 | 4.0 | 0.00 | 0.00 | 0.00 | 44 | 1011.8 |
| 20260505124037 | 58 | 293 | 1.0 | 3.0 | 0.00 | 0.00 | 0.00 | 44 | 1012.2 |
| 20260505123532 | 58 | 223 | 1.0 | 2.0 | 0.00 | 0.00 | 0.00 | 43 | 1012.2 |
| 20260505123026 | 58 | 286 | 0.0 | 3.0 | 0.00 | 0.00 | 0.00 | 43 | 1012.2 |
| 20260505122743 | 58 | 300 | 1.0 | 3.0 | 0.00 | 0.00 | 0.00 | 43 | 1012.2 |
| 20260505122246 | 58 | 254 | 1.0 | 4.0 | 0.00 | 0.00 | 0.00 | 43 | 1012.2 |
| 20260505121508 | 58 | 259 | 2.0 | 8.0 | 0.00 | 0.00 | 0.00 | 43 | 1012.2 |
| 20260505121002 | 58 | 211 | 2.0 | 8.0 | 0.00 | 0.00 | 0.00 | 42 | 1012.1 |
| 20260505120456 | 58 | 280 | 2.0 | 7.0 | 0.00 | 0.00 | 0.00 | 42 | 1012.1 |
| 20260505115950 | 58 | 284 | 1.0 | 7.0 | 0.00 | 0.00 | 0.00 | 40 | 1012.0 |
| 20260505115444 | 58 | 302 | 1.0 | 3.0 | 0.00 | 0.00 | 0.00 | 40 | 1012.0 |
| 20260505114938 | 58 | 319 | 1.0 | 2.0 | 0.00 | 0.00 | 0.00 | 40 | 1011.8 |
| 20260505114432 | 58 | 306 | 0.0 | 2.0 | 0.00 | 0.00 | 0.00 | 39 | 1011.8 |
| 20260505113926 | 58 | 5 | 0.0 | 1.0 | 0.00 | 0.00 | 0.00 | 40 | 1011.6 |
| 20260505113420 | 58 | 5 | 0.0 | 1.0 | 0.00 | 0.00 | 0.00 | 39 | 1011.6 |
| 20260505112914 | 58 | 5 | 0.0 | 1.0 | 0.00 | 0.00 | 0.00 | 39 | 1011.7 |
| 20260505112407 | 58 | 5 | 0.0 | 1.0 | 0.00 | 0.00 | 0.00 | 38 | 1011.7 |
| 20260505111902 | 59 | 11 | 0.0 | 2.0 | 0.00 | 0.00 | 0.00 | 38 | 1011.6 |
| 20260505111615 | 59 | 11 | 0.0 | 3.0 | 0.00 | 0.00 | 0.00 | 37 | 1011.6 |
| 20260505110850 | 59 | 182 | 1.0 | 4.0 | 0.00 | 0.00 | 0.00 | 36 | 1011.7 |
| 20260505110344 | 59 | 252 | 1.0 | 5.0 | 0.00 | 0.00 | 0.00 | 37 | 1011.8 |
| 20260505101749 | 58 | 211 | 1.0 | 4.0 | 0.00 | 0.00 | 0.00 | 37 | 1011.8 |
| 20260505101249 | 58 | 186 | 0.0 | 1.0 | 0.00 | 0.00 | 0.00 | 39 | 1011.8 |
| 20260505100748 | 58 | 186 | 0.0 | 1.0 | 0.00 | 0.00 | 0.00 | 38 | 1011.8 |
| 20260505100248 | 59 | 182 | 0.0 | 1.0 | 0.00 | 0.00 | 0.00 | 38 | 1011.7 |
| 20260505095748 | 59 | 181 | 0.0 | 0.0 | 0.00 | 0.00 | 0.00 | 38 | 1011.7 |
| 20260505095246 | 59 | 181 | 0.0 | 0.0 | 0.00 | 0.00 | 0.00 | 37 | 1011.8 |
| 20260505095008 | 59 | 181 | 0.0 | 2.0 | 0.00 | 0.00 | 0.00 | 37 | 1011.6 |
| 20260505094241 | 59 | 181 | 0.0 | 2.0 | 0.00 | 0.00 | 0.00 | 36 | 1011.7 |
| 20260505093740 | 60 | 181 | 0.0 | 2.0 | 0.00 | 0.00 | 0.00 | 35 | 1011.7 |
| 20260505093459 | 60 | 237 | 0.0 | 0.0 | 0.00 | 0.00 | 0.00 | 36 | 1011.6 |
| 20260505092738 | 60 | 237 | 0.0 | 0.0 | 0.00 | 0.00 | 0.00 | 35 | 1011.6 |
| 20260505092238 | 60 | 237 | 0.0 | 1.0 | 0.00 | 0.00 | 0.00 | 34 | 1011.7 |
| 20260505091738 | 60 | 237 | 1.0 | 2.0 | 0.00 | 0.00 | 0.00 | 35 | 1012.0 |
| 20260505091238 | 60 | 237 | 1.0 | 3.0 | 0.00 | 0.00 | 0.00 | 35 | 1011.7 |
| 20260505090736 | 60 | 237 | 1.0 | 3.0 | 0.00 | 0.00 | 0.00 | 34 | 1011.8 |
| 20260505090446 | 61 | 306 | 0.0 | 3.0 | 0.00 | 0.00 | 0.00 | 34 | 1012.1 |
| 20260505090332 | 60 | 290 | 0.0 | 3.0 | 0.00 | 0.00 | 0.00 | 34 | 1012.0 |
| 20260505085234 | 61 | 306 | 1.0 | 3.0 | 0.00 | 0.00 | 0.00 | 33 | 1012.2 |
| 20260505084732 | 61 | 323 | 0.0 | 2.0 | 0.00 | 0.00 | 0.00 | 33 | 1012.1 |
| 20260505084230 | 61 | 302 | 0.0 | 1.0 | 0.00 | 0.00 | 0.00 | 33 | 1012.2 |
| 20260505083730 | 62 | 276 | 0.0 | 1.0 | 0.00 | 0.00 | 0.00 | 33 | 1012.3 |
| 20260505083223 | 62 | 264 | 0.0 | 4.0 | 0.00 | 0.00 | 0.00 | 32 | 1012.4 |
| 20260505083209 | 62 | 264 | 1.0 | 4.0 | 0.00 | 0.00 | 0.00 | 32 | 1012.4 |
| 20260505082218 | 62 | 290 | 2.0 | 8.0 | 0.00 | 0.00 | 0.00 | 32 | 1012.3 |
| 20260505081718 | 62 | 271 | 2.0 | 8.0 | 0.00 | 0.00 | 0.00 | 32 | 1012.3 |
| 20260505081218 | 62 | 254 | 2.0 | 7.0 | 0.00 | 0.00 | 0.00 | 32 | 1012.4 |
| 20260505080717 | 62 | 267 | 2.0 | 7.0 | 0.00 | 0.00 | 0.00 | 31 | 1012.4 |
| 20260505080218 | 62 | 234 | 2.0 | 7.0 | 0.00 | 0.00 | 0.00 | 31 | 1012.4 |
| 20260505075718 | 63 | 267 | 1.0 | 8.0 | 0.00 | 0.00 | 0.00 | 31 | 1012.4 |
| 20260505075217 | 63 | 263 | 2.0 | 10.0 | 0.00 | 0.00 | 0.00 | 31 | 1012.5 |
| 20260505074718 | 63 | 295 | 3.0 | 10.0 | 0.00 | 0.00 | 0.00 | 31 | 1012.5 |
| 20260505074218 | 63 | 226 | 3.0 | 8.0 | 0.00 | 0.00 | 0.00 | 31 | 1012.5 |
| 20260505073717 | 63 | 256 | 3.0 | 10.0 | 0.00 | 0.00 | 0.00 | 30 | 1012.4 |
| 20260505073218 | 63 | 286 | 4.0 | 15.0 | 0.00 | 0.00 | 0.00 | 30 | 1012.3 |
| 20260505072720 | 63 | 302 | 7.0 | 19.0 | 0.00 | 0.00 | 0.00 | 30 | 1012.1 |
| 20260505072213 | 64 | 209 | 8.0 | 19.0 | 0.00 | 0.00 | 0.00 | 30 | 1012.0 |
| 20260505071714 | 64 | 223 | 7.0 | 16.0 | 0.00 | 0.00 | 0.00 | 30 | 1012.1 |
| 20260505071214 | 64 | 310 | 7.0 | 18.0 | 0.00 | 0.00 | 0.00 | 29 | 1012.0 |
| 20260505070713 | 64 | 231 | 7.0 | 18.0 | 0.00 | 0.00 | 0.00 | 29 | 1012.1 |
| 20260505070213 | 64 | 335 | 6.0 | 15.0 | 0.00 | 0.00 | 0.00 | 29 | 1011.8 |
| 20260505065714 | 64 | 254 | 6.0 | 21.0 | 0.00 | 0.00 | 0.00 | 29 | 1011.8 |
| 20260505065213 | 64 | 202 | 6.0 | 21.0 | 0.00 | 0.00 | 0.00 | 28 | 1011.6 |
| 20260505064715 | 64 | 190 | 5.0 | 16.0 | 0.00 | 0.00 | 0.00 | 28 | 1011.8 |
| 20260505064214 | 64 | 236 | 5.0 | 12.0 | 0.00 | 0.00 | 0.00 | 28 | 1011.7 |
| 20260505063933 | 65 | 325 | 4.0 | 12.0 | 0.00 | 0.00 | 0.00 | 28 | 1011.8 |
| 20260505063433 | 65 | 255 | 4.0 | 12.0 | 0.00 | 0.00 | 0.00 | 27 | 1011.7 |
| 20260505062713 | 65 | 250 | 4.0 | 9.0 | 0.00 | 0.00 | 0.00 | 27 | 1011.7 |
| 20260505062213 | 65 | 242 | 4.0 | 9.0 | 0.00 | 0.00 | 0.00 | 27 | 1011.8 |
| 20260505061714 | 65 | 224 | 4.0 | 11.0 | 0.00 | 0.00 | 0.00 | 26 | 1012.0 |
| 20260505061214 | 65 | 209 | 3.0 | 11.0 | 0.00 | 0.00 | 0.00 | 26 | 1012.0 |
| 20260505060713 | 65 | 213 | 4.0 | 11.0 | 0.00 | 0.00 | 0.00 | 26 | 1012.0 |
| 20260505060214 | 66 | 221 | 4.0 | 8.0 | 0.00 | 0.00 | 0.00 | 26 | 1012.0 |
| 20260505055714 | 66 | 218 | 3.0 | 8.0 | 0.00 | 0.00 | 0.00 | 26 | 1011.8 |
| 20260505055210 | 66 | 254 | 4.0 | 10.0 | 0.00 | 0.00 | 0.00 | 25 | 1012.0 |
| 20260505054710 | 66 | 263 | 5.0 | 13.0 | 0.00 | 0.00 | 0.00 | 25 | 1011.8 |
| 20260505054211 | 66 | 221 | 5.0 | 13.0 | 0.00 | 0.00 | 0.00 | 25 | 1011.8 |
| 20260505054159 | 66 | 300 | 4.0 | 10.0 | 0.00 | 0.00 | 0.00 | 25 | 1011.8 |
| 20260505053210 | 66 | 224 | 3.0 | 10.0 | 0.00 | 0.00 | 0.00 | 25 | 1011.7 |
| 20260505052933 | 66 | 229 | 3.0 | 8.0 | 0.00 | 0.00 | 0.00 | 25 | 1011.7 |
| 20260505052209 | 66 | 271 | 2.0 | 8.0 | 0.00 | 0.00 | 0.00 | 25 | 1011.6 |
| 20260505051710 | 66 | 265 | 2.0 | 5.0 | 0.00 | 0.00 | 0.00 | 25 | 1011.7 |
| 20260505051210 | 67 | 276 | 2.0 | 5.0 | 0.00 | 0.00 | 0.00 | 24 | 1011.6 |
| 20260505050932 | 67 | 231 | 2.0 | 6.0 | 0.00 | 0.00 | 0.00 | 25 | 1011.6 |
| 20260505050209 | 67 | 254 | 2.0 | 9.0 | 0.00 | 0.00 | 0.00 | 24 | 1011.6 |
| 20260505041705 | 67 | 238 | 1.0 | 2.0 | 0.00 | 0.00 | 0.00 | 26 | 1011.5 |
| 20260505041201 | 67 | 242 | 1.0 | 4.0 | 0.00 | 0.00 | 0.00 | 25 | 1011.4 |
| 20260505040921 | 67 | 243 | 1.0 | 6.0 | 0.00 | 0.00 | 0.00 | 25 | 1011.5 |
| 20260505040202 | 67 | 232 | 1.0 | 6.0 | 0.00 | 0.00 | 0.00 | 25 | 1011.6 |
| 20260505035701 | 68 | 295 | 1.0 | 4.0 | 0.00 | 0.00 | 0.00 | 25 | 1011.5 |
| 20260505035425 | 68 | 257 | 1.0 | 4.0 | 0.00 | 0.00 | 0.00 | 25 | 1011.5 |
| 20260505034921 | 68 | 273 | 0.0 | 4.0 | 0.00 | 0.00 | 0.00 | 24 | 1011.5 |
| 20260505034202 | 68 | 261 | 0.0 | 1.0 | 0.00 | 0.00 | 0.00 | 24 | 1011.2 |
| 20260505033701 | 69 | 261 | 0.0 | 5.0 | 0.00 | 0.00 | 0.00 | 23 | 1011.1 |
| 20260505033159 | 69 | 304 | 1.0 | 5.0 | 0.00 | 0.00 | 0.00 | 23 | 1011.2 |
| 20260505032919 | 69 | 298 | 2.0 | 8.0 | 0.00 | 0.00 | 0.00 | 23 | 1011.0 |
| 20260505032152 | 69 | 307 | 2.0 | 8.0 | 0.00 | 0.00 | 0.00 | 22 | 1011.0 |
| 20260505031646 | 69 | 259 | 1.0 | 5.0 | 0.00 | 0.00 | 0.00 | 22 | 1010.9 |
| 20260505031141 | 69 | 242 | 1.0 | 7.0 | 0.00 | 0.00 | 0.00 | 22 | 1010.9 |
| 20260505030636 | 70 | 252 | 2.0 | 9.0 | 0.00 | 0.00 | 0.00 | 22 | 1010.7 |
| 20260505030129 | 70 | 265 | 3.0 | 11.0 | 0.00 | 0.00 | 0.00 | 22 | 1010.5 |
| 20260505025623 | 70 | 240 | 4.0 | 11.0 | 0.00 | 0.00 | 0.00 | 21 | 1010.5 |
| 20260505025117 | 70 | 260 | 3.0 | 13.0 | 0.00 | 0.00 | 0.00 | 21 | 1010.3 |
| 20260505024611 | 70 | 250 | 3.0 | 13.0 | 0.00 | 0.00 | 0.00 | 21 | 1010.3 |
| 20260505024546 | 71 | 225 | 4.0 | 13.0 | 0.00 | 0.00 | 0.00 | 21 | 1010.3 |
| 20260505023603 | 71 | 234 | 4.0 | 15.0 | 0.00 | 0.00 | 0.00 | 20 | 1010.3 |
| 20260505023546 | 71 | 303 | 5.0 | 15.0 | 0.00 | 0.00 | 0.00 | 20 | 1010.3 |
| 20260505022603 | 71 | 233 | 5.0 | 15.0 | 0.00 | 0.00 | 0.00 | 20 | 1010.3 |
| 20260505022101 | 71 | 279 | 4.0 | 15.0 | 0.00 | 0.00 | 0.00 | 20 | 1010.3 |
| 20260505021821 | 71 | 266 | 4.0 | 10.0 | 0.00 | 0.00 | 0.00 | 20 | 1010.3 |
| 20260505021302 | 71 | 288 | 4.0 | 14.0 | 0.00 | 0.00 | 0.00 | 20 | 1010.1 |
| 20260505021148 | 71 | 277 | 5.0 | 14.0 | 0.00 | 0.00 | 0.00 | 20 | 1010.2 |
| 20260505020325 | 71 | 224 | 2.0 | 8.0 | 0.00 | 0.00 | 0.00 | 21 | 1010.0 |
| 20260505015602 | 72 | 293 | 2.0 | 10.0 | 0.00 | 0.00 | 0.00 | 21 | 1010.0 |
| 20260505015100 | 72 | 221 | 2.0 | 10.0 | 0.00 | 0.00 | 0.00 | 20 | 1010.0 |
| 20260505014600 | 72 | 228 | 2.0 | 7.0 | 0.00 | 0.00 | 0.00 | 20 | 1010.0 |
| 20260505014057 | 72 | 310 | 3.0 | 9.0 | 0.00 | 0.00 | 0.00 | 21 | 1009.8 |
| 20260505013558 | 72 | 292 | 3.0 | 10.0 | 0.00 | 0.00 | 0.00 | 20 | 1009.7 |
| 20260505013057 | 72 | 273 | 2.0 | 10.0 | 0.00 | 0.00 | 0.00 | 20 | 1009.6 |
| 20260505012558 | 72 | 236 | 2.0 | 12.0 | 0.00 | 0.00 | 0.00 | 20 | 1009.6 |
| 20260505012057 | 72 | 204 | 2.0 | 12.0 | 0.00 | 0.00 | 0.00 | 20 | 1009.4 |
| 20260505011555 | 73 | 310 | 2.0 | 9.0 | 0.00 | 0.00 | 0.00 | 20 | 1009.5 |
| 20260505011055 | 73 | 259 | 3.0 | 10.0 | 0.00 | 0.00 | 0.00 | 19 | 1009.5 |
| 20260505010550 | 73 | 266 | 2.0 | 10.0 | 0.00 | 0.00 | 0.00 | 19 | 1009.4 |
| 20260505010042 | 73 | 259 | 3.0 | 11.0 | 0.00 | 0.00 | 0.00 | 19 | 1009.5 |
| 20260505005537 | 73 | 272 | 4.0 | 12.0 | 0.00 | 0.00 | 0.00 | 18 | 1009.5 |
| 20260505005030 | 73 | 300 | 4.0 | 12.0 | 0.00 | 0.00 | 0.00 | 18 | 1009.5 |
| 20260505004524 | 73 | 237 | 4.0 | 9.0 | 0.00 | 0.00 | 0.00 | 18 | 1009.4 |
| 20260505004018 | 74 | 152 | 4.0 | 13.0 | 0.00 | 0.00 | 0.00 | 17 | 1009.4 |
| 20260505003514 | 74 | 289 | 4.0 | 13.0 | 0.00 | 0.00 | 0.00 | 17 | 1009.6 |
| 20260505003007 | 74 | 248 | 4.0 | 9.0 | 0.00 | 0.00 | 0.00 | 17 | 1009.5 |
| 20260505002501 | 74 | 250 | 4.0 | 12.0 | 0.00 | 0.00 | 0.00 | 17 | 1009.6 |
| 20260505001955 | 74 | 255 | 4.0 | 12.0 | 0.00 | 0.00 | 0.00 | 17 | 1009.6 |